Date String (YYYY-MM-DD hh:mm:ss) UTC,Instrument flags,Ambient pressure (hPa),Sample flow (lpm),Bypass flow (lpm),Sample temperature (°C),Ambient temperature (°C),ASC tube jacket temperature (°C),LED temperature (°C),Box temperature (°C),Sample RH (%),Span deviation,Mass concentration (μg/m³),Mass concentration (μg/m³),Mass concentration (μg/m³)
DateTimeUTC,F1_M11,P_M11,Q1_M11,Q2_M11,T1_M11,T2_M11,T3_M11,T4_M11,T5_M11,U1_M11,ZSPAN_M11,X0_M11,X2_M11,X1_M11
2021-12-17 05:00:00,,0818.8,5.00,0.00,23.2,22.2,00.0,32.4,24.8,09.8,0000.0,0001.85,0000.59,0000.41
2021-12-17 05:01:00,,0818.8,5.00,0.00,23.1,22.1,00.0,32.4,24.7,09.8,0000.0,0001.79,0000.57,0000.41
2021-12-17 05:02:00,,0818.8,5.01,0.00,23.1,22.1,00.0,32.4,24.7,09.8,0000.0,0001.83,0000.59,0000.41
2021-12-17 05:03:00,,0818.8,4.99,0.00,23.0,22.1,00.0,32.3,24.6,09.8,0000.0,0001.90,0000.62,0000.43
2021-12-17 05:04:00,,0818.8,5.02,0.00,23.0,22.1,00.0,32.3,24.7,09.7,0000.0,0001.96,0000.64,0000.44
2021-12-17 05:05:00,,0818.8,4.99,0.00,23.0,22.1,00.0,32.3,24.7,09.7,0000.0,0001.93,0000.64,0000.44
2021-12-17 05:06:00,,0818.9,5.01,0.00,23.0,22.2,00.0,32.2,24.7,09.7,0000.0,0001.98,0000.65,0000.45
2021-12-17 05:07:00,,0818.8,4.99,0.00,23.0,22.2,00.0,32.2,24.8,09.7,0000.0,0001.91,0000.67,0000.45
2021-12-17 05:08:00,,0818.9,5.00,0.00,23.0,22.2,00.0,32.2,24.8,09.7,0000.0,0002.03,0000.70,0000.46
2021-12-17 05:09:00,,0818.8,5.00,0.00,23.1,22.2,00.0,32.2,24.8,09.8,0000.0,0002.23,0000.76,0000.46
2021-12-17 05:10:00,,0818.8,4.99,0.00,23.1,22.2,00.0,32.2,24.8,09.8,0000.0,0002.31,0000.79,0000.47
2021-12-17 05:11:00,,0818.8,5.02,0.00,23.1,22.3,00.0,32.2,24.9,09.8,0000.0,0001.81,0000.84,0000.48
2021-12-17 05:12:00,,0818.7,4.99,0.00,23.1,22.3,00.0,32.2,24.9,09.8,0000.0,0001.77,0000.86,0000.48
2021-12-17 05:13:00,,0818.7,5.01,0.00,23.1,22.3,00.0,32.2,24.8,09.8,0000.0,0001.79,0000.87,0000.47
2021-12-17 05:14:00,,0818.8,4.99,0.00,23.1,22.3,00.0,32.2,24.8,09.9,0000.0,0001.76,0000.86,0000.46
2021-12-17 05:15:00,,0818.7,5.01,0.00,23.1,22.3,00.0,32.2,24.8,09.9,0000.0,0001.77,0000.86,0000.46
2021-12-17 05:16:00,,0818.8,4.99,0.00,23.1,22.3,00.0,32.2,24.8,09.9,0000.0,0001.80,0000.87,0000.46
2021-12-17 05:17:00,,0818.8,5.01,0.00,23.1,22.3,00.0,32.1,24.8,09.9,0000.0,0001.61,0000.82,0000.44
2021-12-17 05:18:00,,0818.8,5.00,0.00,23.1,22.3,00.0,32.1,24.9,09.8,0000.0,0001.49,0000.76,0000.43
2021-12-17 05:19:00,,0818.8,5.01,0.00,23.1,22.3,00.0,32.1,24.9,09.8,0000.0,0001.39,0000.73,0000.43
2021-12-17 05:20:00,,0818.8,4.99,0.00,23.1,22.3,00.0,32.1,24.9,09.8,0000.0,0001.13,0000.65,0000.42
2021-12-17 05:21:00,,0818.8,4.99,0.00,23.1,22.4,00.0,32.1,24.9,09.8,0000.0,0000.92,0000.58,0000.41
2021-12-17 05:22:00,,0818.9,4.99,0.00,23.2,22.4,00.0,32.1,24.9,09.9,0000.0,0000.77,0000.52,0000.39
2021-12-17 05:23:00,,0818.9,5.00,0.00,23.2,22.4,00.0,32.1,24.9,09.9,0000.0,0000.76,0000.51,0000.39
2021-12-17 05:24:00,,0818.9,4.99,0.00,23.2,22.4,00.0,32.1,25.0,09.9,0000.0,0000.74,0000.50,0000.39
2021-12-17 05:25:00,,0818.9,5.01,0.00,23.2,22.4,00.0,32.1,25.0,09.9,0000.0,0000.76,0000.50,0000.39
2021-12-17 05:26:00,,0818.9,4.99,0.00,23.2,22.4,00.0,32.1,25.0,09.8,0000.0,0000.71,0000.48,0000.39
2021-12-17 05:27:00,,0818.9,5.02,0.00,23.2,22.4,00.0,32.1,25.0,09.8,0000.0,0000.67,0000.47,0000.39
2021-12-17 05:28:00,,0818.9,4.99,0.00,23.2,22.4,00.0,32.1,25.0,09.7,0000.0,0000.66,0000.46,0000.38
2021-12-17 05:29:00,,0818.9,5.01,0.00,23.2,22.4,00.0,32.1,25.0,09.6,0000.0,0000.66,0000.46,0000.38
2021-12-17 05:30:00,,0819.0,4.98,0.00,23.2,22.4,00.0,32.1,25.0,09.6,0000.0,0000.66,0000.46,0000.38
2021-12-17 05:31:00,,0819.0,5.01,0.00,23.2,22.4,00.0,32.2,25.0,09.6,0000.0,0000.65,0000.45,0000.38
2021-12-17 05:32:00,,0818.9,4.99,0.00,23.2,22.4,00.0,32.2,24.9,09.5,0000.0,0000.65,0000.45,0000.37
2021-12-17 05:33:00,,0819.0,5.01,0.00,23.2,22.4,00.0,32.2,24.9,09.5,0000.0,0000.64,0000.44,0000.36
2021-12-17 05:34:00,,0819.0,5.00,0.00,23.2,22.3,00.0,32.2,24.9,09.5,0000.0,0000.58,0000.42,0000.36
2021-12-17 05:35:00,,0818.9,5.00,0.00,23.2,22.3,00.0,32.2,24.9,09.5,0000.0,0000.54,0000.40,0000.36
2021-12-17 05:36:00,,0819.0,5.00,0.00,23.2,22.3,00.0,32.2,25.0,09.5,0000.0,0001.06,0000.39,0000.36
2021-12-17 05:37:00,,0818.9,5.01,0.00,23.2,22.3,00.0,32.2,25.0,09.5,0000.0,0001.24,0000.39,0000.36
2021-12-17 05:38:00,,0818.9,5.00,0.00,23.2,22.4,00.0,32.2,25.0,09.4,0000.0,0001.57,0000.40,0000.36
2021-12-17 05:39:00,,0818.9,5.01,0.00,23.2,22.4,00.0,32.2,25.0,09.4,0000.0,0001.65,0000.41,0000.35
2021-12-17 05:40:00,,0818.9,4.98,0.00,23.2,22.4,00.0,32.2,25.0,09.4,0000.0,0001.64,0000.40,0000.35
2021-12-17 05:41:00,,0818.9,5.00,0.00,23.2,22.4,00.0,32.2,25.0,09.4,0000.0,0001.63,0000.40,0000.35
2021-12-17 05:42:00,,0818.9,5.00,0.00,23.2,22.4,00.0,32.2,24.9,09.4,0000.0,0001.63,0000.40,0000.34
2021-12-17 05:43:00,,0818.8,4.99,0.00,23.2,22.4,00.0,32.2,24.9,09.4,0000.0,0001.63,0000.40,0000.34
2021-12-17 05:44:00,,0818.8,5.00,0.00,23.2,22.3,00.0,32.2,24.9,09.4,0000.0,0001.64,0000.41,0000.35
2021-12-17 05:45:00,,0818.8,5.01,0.00,23.2,22.3,00.0,32.2,24.9,09.5,0000.0,0001.65,0000.41,0000.35
2021-12-17 05:46:00,,0818.8,5.00,0.00,23.1,22.3,00.0,32.2,24.8,09.5,0000.0,0001.66,0000.41,0000.34
2021-12-17 05:47:00,,0818.8,4.99,0.00,23.1,22.3,00.0,32.2,24.8,09.5,0000.0,0001.26,0000.40,0000.33
2021-12-17 05:48:00,,0818.8,5.01,0.00,23.1,22.2,00.0,32.1,24.8,09.5,0000.0,0002.13,0000.42,0000.34
2021-12-17 05:49:00,,0818.8,5.01,0.00,23.1,22.2,00.0,32.1,24.7,09.5,0000.0,0001.85,0000.42,0000.34
2021-12-17 05:50:00,,0818.8,5.01,0.00,23.1,22.1,00.0,32.1,24.6,09.5,0000.0,0001.73,0000.41,0000.35
2021-12-17 05:51:00,,0818.8,4.99,0.00,23.0,22.1,00.0,32.1,24.6,09.6,0000.0,0001.75,0000.41,0000.35
2021-12-17 05:52:00,,0818.7,5.02,0.00,23.0,22.1,00.0,32.1,24.6,09.6,0000.0,0001.79,0000.43,0000.35
2021-12-17 05:53:00,,0818.8,5.00,0.00,23.0,22.0,00.0,32.1,24.6,09.6,0000.0,0001.85,0000.46,0000.35
2021-12-17 05:54:00,,0818.7,5.00,0.00,23.0,22.0,00.0,32.1,24.5,09.6,0000.0,0001.85,0000.47,0000.35
2021-12-17 05:55:00,,0818.8,5.00,0.00,22.9,22.0,00.0,32.1,24.5,09.7,0000.0,0001.88,0000.49,0000.36
2021-12-17 05:56:00,,0818.8,4.99,0.00,22.9,21.9,00.0,32.0,24.4,09.8,0000.0,0001.89,0000.49,0000.36
2021-12-17 05:57:00,,0818.8,5.02,0.00,22.9,21.9,00.0,32.0,24.4,09.8,0000.0,0001.90,0000.49,0000.36
2021-12-17 05:58:00,,0818.7,4.98,0.00,22.8,21.9,00.0,32.0,24.4,09.7,0000.0,0001.86,0000.53,0000.37
2021-12-17 05:59:00,,0818.7,5.01,0.00,22.8,21.8,00.0,32.0,24.3,09.7,0000.0,0000.76,0000.51,0000.36
